Regional Weather Roundup
Issued by NWS Kansas City/Pleasant Hill, MO

Home | Current Version | Previous Version | Graphics & Text | Print | Product List | Glossary Off
Versions: 1 2 3 4 5 6 7 8 9 10 11 12 13 14 15 16 17 18 19 20 21 22 23 24 25 26 27 28 29 30 31 32 33 34 35 36 37 38 39 40 41 42 43 44 45 46 47 48 49 50

000
ASUS43 KEAX 250310
RWREAX

WEATHER ROUNDUP FOR EASTERN KANSAS AND NORTHWEST MISSOURI
NATIONAL WEATHER SERVICE KANSAS CITY/PLEASANT HILL MO
900 PM CST SAT FEB 24 2018

KSZ040-057-103>105-MOZ028-029-037-043-250400-
...KANSAS CITY METROPOLITAN AREA...

CITY           SKY/WX    TMP DP  RH WIND       PRES   REMARKS
K.C. INTL      CLOUDY    34  28  79 W13G26    29.87R WCI  25
K.C. DOWNTOWN  CLOUDY    37  28  70 W12G23    29.88R WCI  29
LEES SUMMIT    CLOUDY    35  30  82 W17G28    29.87R WCI  25
OLATHE - IXD   MOCLDY    34  30  85 W10       29.89R WCI  26
OLATHE - OJC   CLOUDY    33  29  85 W16       29.88R WCI  23
LAWRENCE       PTCLDY    34  30  85 W13       29.89R WCI  25

$$

MOZ001>008-011>017-020>025-030>033-038>040-044>046-053-054-250400-
...NORTHERN AND CENTRAL MISSOURI...

CITY           SKY/WX    TMP DP  RH WIND       PRES   REMARKS
ST. JOSEPH     PTCLDY    32  29  88 SW12      29.85R WCI  23
MOSBY          CLOUDY    34  30  86 W12G23    29.87R WCI  25
WARRENSBURG    CLOUDY    36  32  87 W18G25    29.87R WCI  25
WHITEMAN AFB   CLOUDY   N/A N/A N/A W16G25    29.82R
CLINTON        CLOUDY    37  32  81 W18       29.89R WCI  27
SEDALIA        CLOUDY    39  36  89 W21G28    29.85R WCI  29
WARSAW         NOT AVBL
CHILLICOTHE      N/A     34  29  82 VRB7G20   29.81R WCI  28
KIRKSVILLE     CLOUDY    35  33  92 W17G36    29.73R WCI  25

$$

MOZ041-047>049-056>058-063>065-088>090-097-250400-
...EASTERN AND SOUTHERN MISSOURI...

CITY           SKY/WX    TMP DP  RH WIND       PRES   REMARKS
ST. LOUIS INTL DRIZZLE   54  53  97 W23G29    29.66R
SPIRIT OF STL  CLOUDY    54  53  97 W16G31    29.66R FOG
COLUMBIA       CLOUDY    40  38  93 W21G28    29.78R WCI  30
JEFFERSON CITY CLOUDY    43  40  89 W16       29.80R
ROLLA          CLOUDY    43  41  93 W21G33    29.80R WCI  34
OSAGE BEACH    CLOUDY    39  37  93 W18G26    29.86R WCI  30
SPRINGFIELD    CLOUDY    40  36  86 W20G30    29.91R WCI  30
BRANSON        CLOUDY    41  36  81 W6G17     29.93R
JOPLIN         CLOUDY    40  35  83 W13G23    29.96R WCI  32
WEST PLAINS    MOCLDY    48  42  80 W22G37    29.84R

$$

IAZ060-094-KSZ022-034>040-054-083-096-NEZ052-066-093-250400-
...KANSAS...SOUTHEAST NEBRASKA AND IOWA...

CITY           SKY/WX    TMP DP  RH WIND       PRES   REMARKS
TOPEKA         CLEAR     33  30  88 SW6       29.88R WCI  28
MANHATTAN      CLEAR     30  27  88 SW7       29.88R WCI  23
EMPORIA        CLEAR     27  25  92 S6        29.90R WCI  20
CHANUTE        CLEAR     35  32  88 SW7       29.93S WCI  29
WICHITA        CLEAR     29  27  92 SW7       29.92R WCI  22
OMAHA          PTCLDY    28  24  85 S6        29.75R WCI  22
LINCOLN        CLEAR     31  24  75 W13       29.80R WCI  21
FALLS CITY     CLEAR     30  27  88 SW10      29.81R WCI  21
LAMONI         CLOUDY    31  26  82 W23       29.75R WCI  18
DES MOINES     CLOUDY    31  27  85 W20       29.69R WCI  19

$$




USA.gov is the U.S. government's official web portal to all federal, state and local government web resources and services.